National Weather Service Raw Text Product

Displaying AFOS PIL: RWRTX Received: 2018-06-23 21:00 UTC


408 
ASUS44 KFWD 232101
RWRTX 
NORTH TEXAS HOURLY WEATHER ROUNDUP
NATIONAL WEATHER SERVICE FORT WORTH TX
400 PM CDT SAT JUN 23 2018

NOTE: "FAIR" INDICATES FEW OR NO CLOUDS BELOW 12,000 FEET WITH NO
SIGNIFICANT WEATHER AND/OR OBSTRUCTIONS TO VISIBILITY.

TXZ118-119-232200-
DALLAS/FORT WORTH METROPLEX
  
CITY           SKY/WX    TMP DP  RH WIND       PRES   REMARKS
DFW AIRPORT    FAIR      96  69  41 S16G26    29.74F HX 102           
DALLAS LOVE    FAIR      96  72  45 SE16G29   29.75F HX 104           
FTW MEACHAM    FAIR      97  68  38 S14G30    29.74F HX 102           
DAL-EXECUTIVE  FAIR      97  70  41 SE17G29   29.75F HX 103           
FTW-ALLIANCE   PTSUNNY   96  68  39 S20G26    29.74F HX 101           
FTW-NAS-JRB    FAIR      98  64  32 S17G25    29.75F HX 100           
FTW-SPINKS     MOSUNNY   99  63  30 SE16G28   29.77F HX 100           
ARLINGTON      FAIR      97  69  40 SE20G29   29.75F HX 103           
GRAND PRAIRIE  SUNNY     97  64  34 S14G23    29.77F HX  99           
ADDISON        PTSUNNY   93  70  46 SE18G26   29.77F HX  99           
MESQUITE       PTSUNNY   93  68  43 SE18G24   29.78F HX  97           
LANCASTER      FAIR      94  71  45 S18       29.77F HX 101           
$$

TXZ091>094-102>105-117-120-121-131>134-232200-
NORTH CENTRAL TEXAS
  
CITY           SKY/WX    TMP DP  RH WIND       PRES   REMARKS
SHRMAN/DENISON FAIR      93  72  49 S12G20    29.79F HX 101           
GAINESVILLE    FAIR      91  72  52 SE12      29.78  HX  98           
BOWIE          PTSUNNY   93  73  53 SE6       29.77F HX 101           
BRIDGEPORT     FAIR      94  66  39 SE13G20   29.76F HX  97           
DECATUR        FAIR      93  68  43 SE12G25   29.77F HX  97           
DENTON         PTSUNNY   96  70  42 SE16G23   29.75F HX 102           
MCKINNEY       FAIR      92  72  51 SE17G26   29.77F HX  99           
BONHAM         FAIR      91  74  57 S15       29.79F HX 100           
ROCKWALL       FAIR      92  72  51 S13G21    29.78F HX 100           
TERRELL        FAIR      95  70  44 S18G25    29.78F HX 101           
WAXAHACHIE     FAIR      96  68  38 SE16G26   29.78S HX 101           
GRANBURY       FAIR     100  63  29 SE16G24   29.74F HX 101           
$$

TXZ083>090-098>101-113>116-127>130-139>142-154-155-232200-
WESTERN NORTH TEXAS
  
CITY           SKY/WX    TMP DP  RH WIND       PRES   REMARKS
WICHITA FALLS  PTSUNNY   93  70  46 SE13      29.74F HX  99           
WF-KICKAPOO    FAIR      94  71  46 SE16      29.76F HX 101           
VERNON         PTSUNNY   94  68  41 SE10      29.75F HX  99           
ABILENE        PTSUNNY   99  69  37 SE17      29.72F HX 105           
ABILENE-DYESS  PTSUNNY  102  64  29 SE15G28   29.71F HX 105           
GRAHAM         FAIR      96  66  36 S9G18     29.71F HX 100           
BRECKENRIDGE   FAIR     100  63  29 SE15      29.71F HX 102           
EASTLAND       FAIR      99  67  35 S13G23    29.73S HX 104           
RANGER         FAIR      98  65  33 SE16G28   29.74F HX 101           
MINERAL WELLS  LGT RAIN  99  67  35 SE17G25   29.72F HX 103           
STEPHENVILLE   FAIR      98  61  29 S18G26    29.78F HX  98           
COMANCHE       FAIR     100  67  33 S15G31    29.74F HX 105           
BRADY          FAIR     100  64  30 S13G22    29.76S HX 103           
$$

TXZ143>147-156>162-174-175-232200-
CENTRAL TEXAS
  
CITY           SKY/WX    TMP DP  RH WIND       PRES   REMARKS
WACO           FAIR      98  67  36 S20       29.76F HX 102           
WACO-TSTC      SUNNY     99  66  34 S17G26    29.78F HX 102           
WACO-MCGREGOR  FAIR      98  70  40 SE20G29   29.77F HX 105           
HILLSBORO      FAIR      98  67  35 SE16G26   29.76F HX 103           
CORSICANA      FAIR      94  70  45 S20G28    29.79F HX 100           
MEXIA          FAIR      94  69  44 SE18G25   29.79F HX  99           
HEARNE         FAIR      93  73  51 SE15G21   29.81F HX 101           
CAMERON        FAIR      95  70  43 S13G24    29.79F HX 101           
TEMPLE         FAIR      97  70  41 SE15G25   29.78F HX 103           
KILLEEN        FAIR      97  66  36 SE17G24   29.76F HX 100           
KILLEEN-SKYLRK FAIR      97  70  41 S17G25    29.77F HX 103           
FORT HOOD      FAIR      96  67  38 SE18      29.74F HX 100           
GATESVILLE     FAIR      97  68  38 SE15G25   29.78F HX 101           
HAMILTON       FAIR      99  64  31 S17G26    29.78F HX 102           
LAMPASAS       FAIR      96  67  38 S16G22    29.77F HX 100           
$$

TXZ095>097-106>112-122>126-135>138-148>153-164>167-232200-
EAST TEXAS
  
CITY           SKY/WX    TMP DP  RH WIND       PRES   REMARKS
PARIS          FAIR      91  76  61 S8        29.81F HX 103           
SULPHUR SPRNGS PTSUNNY   92  71  49 SE9G16    29.81F HX  98           
MOUNT PLEASANT FAIR      93  74  54 S13       29.82S HX 103           
GILMER         FAIR      93  71  49 S9        29.81F HX 100           
MINEOLA        CLOUDY    93  73  52 SE7       29.80F HX 102           
TYLER          FAIR      93  70  46 S14G23    29.81F HX  99           
LONGVIEW       FAIR      94  71  47 S9        29.81F HX 101           
MARSHALL       FAIR      91  67  45 S8G17     29.84F HX  95           
ATHENS         FAIR      91  68  46 S10G17    29.79F HX  95           
PALESTINE      FAIR      93  70  46 SE12G17   29.83F HX  98           
JACKSONVILLE   FAIR      93  68  43 S13       29.86S HX  97           
HENDERSON      FAIR      95  69  41 SE10G17   29.83F HX 100           
CENTER         FAIR      92  69  47 S10G17    29.85F HX  96           
NACOGDOCHES      N/A     95  72  47 S12       29.83F HX 103           
LUFKIN         PTSUNNY   94  70  45 S16       29.83F HX 100           
$$

SUPPLEMENTAL OBSERVATIONS (NWS FORT WORTH AREA)
  
CITY           SKY/WX    TMP DP  RH WIND       PRES   REMARKS
$$

SUPPLEMENTAL OBSERVATIONS (NWS NORMAN AREA)
  
CITY           SKY/WX    TMP DP  RH WIND       PRES   REMARKS
GOODLETT         N/A     93  65  39 SE14G22   29.76F HX  95           
ODELL            N/A     94  68  42 SE16      29.77F HX  99           
CROWELL          N/A     94  71  46 SE14      29.76F HX 101           
KNOX CITY        N/A     98  69  38 SE12G17   29.73F HX 105           
SEYMOUR          N/A     98  67  37 SE13G20   29.74F HX 102           
$$

SUPPLEMENTAL OBSERVATIONS (NWS SAN ANGELO AREA)
  
CITY           SKY/WX    TMP DP  RH WIND       PRES   REMARKS
WEINERT          N/A     97  70  41 SE15      29.73F HX 103           
HASKELL          N/A     96  64  35 SE14      29.73F HX  98           
THROCKMORTON     N/A     99  69  38 SE12      29.74F HX 105           
STAMFORD         N/A    100  70  36 SE18      29.72F HX 107           
CLYDE            N/A     98  70  39 S17       29.76F HX 105           
$$

SUPPLEMENTAL OBSERVATIONS (NWS SHREVEPORT AREA)
  
CITY           SKY/WX    TMP DP  RH WIND       PRES   REMARKS
$$

SUPPLEMENTAL OBSERVATIONS ARE A COLLECTION OF AUTOMATED INSTRUMENTS
THAT ARE MAINTAINED BY A VARIETY OF FEDERAL AND STATE AGENCIES. 
CERTAIN ELEMENTS...SUCH AS HUMIDITY VALUES AND SUSTAINED WIND 
SPEEDS...MAY BE APPROXIMATED.